Hourly Data Report for August 23, 2018

TORONTO CITY
ONTARIO
Current Station Operator: ECCC - MSC

43°40'00.000" N
79°24'00.000" W
112.50 m
6158355
71508
XTO

Download Data

Hourly Data (August 2018)
Hourly Data Report for August 23, 2018
TIME
LST
Temp Definition
°C
Dew Point Definition
°C
Rel Hum Definition
%
Precip. Amount Definition
mm

Wind Dir Definition
10's deg

Wind Spd Definition
km/h
Visibility Definition
km
Stn Press Definition
kPa
Hmdx Definition


Wind Chill Definition


Weather Definition


00:00 17.0 10.7 66 0.0 LegendMM LegendMM   100.11     LegendNANA
01:00 16.4 11.0 70 0.0 LegendMM LegendMM   100.08     LegendNANA
02:00 16.6 11.4 71 0.0 LegendMM LegendMM   100.08     LegendNANA
03:00 16.3 11.5 73 0.0 LegendMM LegendMM   100.10     LegendNANA
04:00 15.9 11.6 76 0.0 LegendMM LegendMM   100.12     LegendNANA
05:00 15.9 11.7 77 0.0 LegendMM LegendMM   100.13     LegendNANA
06:00 16.5 11.7 73 0.0 LegendMM LegendMM   100.20     LegendNANA
07:00 17.5 11.7 69 0.0 LegendMM LegendMM   100.26     LegendNANA
08:00 19.7 12.0 61 0.0 LegendMM LegendMM   100.33     LegendNANA
09:00 21.4 12.4 56 0.0 LegendMM LegendMM   100.36     LegendNANA
10:00 23.4 9.0 40 0.0 LegendMM LegendMM   100.39     LegendNANA
11:00 24.5 7.4 34 0.0 LegendMM LegendMM   100.38 25   LegendNANA
12:00 25.8 7.6 31 0.0 LegendMM LegendMM   100.33 26   LegendNANA
13:00 25.6 7.2 31 0.0 LegendMM LegendMM   100.30 26   LegendNANA
14:00 26.5 8.1 31 0.0 LegendMM LegendMM   100.27 27   LegendNANA
15:00 26.3 8.5 32 0.0 LegendMM LegendMM   100.23 27   LegendNANA
16:00 26.5 8.2 31 0.0 LegendMM LegendMM   100.23 27   LegendNANA
17:00 26.1 7.9 32 0.0 LegendMM LegendMM   100.25 26   LegendNANA
18:00 25.3 7.4 32 0.0 LegendMM LegendMM   100.27 25   LegendNANA
19:00 24.5 7.2 33 0.0 LegendMM LegendMM   100.33 25   LegendNANA
20:00 23.2 8.9 40 0.0 LegendMM LegendMM   100.40     LegendNANA
21:00 22.5 10.0 45 0.0 LegendMM LegendMM   100.47     LegendNANA
22:00 21.8 11.0 50 0.0 LegendMM LegendMM   100.50     LegendNANA
23:00 20.7 10.8 53 0.0 LegendMM LegendMM   100.51     LegendNANA

Notes on Data Quality.

Legend

  • E = Estimated
  • M = Missing
  • NA = Not Available*
  • [empty] = Indicates an unobserved value
Date modified: